[[{"header":{"parameterUnit":"m.s-1","parameterCategory":1,"la1":30.2991,"la2":30.254,"lo1":-89.0895,"lo2":-89.0444,"dy":0.0017,"dx":0.0017,"nx":28,"ny":28,"refTime":"2023-09-15T09:00:00:Z","depth":0,"parameterNumber":2,"parameterNumberName":"U-component_of_WINDS"},"data":[0,0,0,0,0,0,0,0,0,0,0,0,0,0,0,0,0,0,0,0,0,0,0,0,0,0,0,0,0,0,0,0,0,0,0,0,0,0,0,0,0,0,0,0,0,0,0,0,0,0,0,0,0,0,0,0,0,0,2.427,2.4271,0,2.4322,2.4323,2.4324,2.4277,2.4275,2.4273,2.4271,2.433,2.4333,2.4337,0,0,0,0,0,0,0,0,0,0,0,0,0,2.4132,2.4135,2.427,2.4271,2.4271,2.4322,2.4323,2.4324,2.4277,2.4275,2.4273,2.4271,2.4329,2.4333,2.4337,0,0,0,0,0,0,0,0,0,0,0,0,0,2.4189,2.4136,2.427,2.4254,2.4253,2.4322,2.4323,2.4324,2.4278,2.4275,2.4272,2.4269,2.4328,2.4332,2.4337,2.4426,0,0,2.4353,2.4355,0,0,0,0,0,0,0,0,2.4186,2.4194,2.4256,2.4255,2.4254,2.429,2.4296,2.4358,2.4279,2.4269,2.4271,2.4268,2.4319,2.4325,2.4341,2.4429,2.4431,2.4353,2.4356,2.4358,2.436,0,0,0,0,0,0,0,2.4182,2.4192,2.4291,2.4257,2.4256,2.4245,2.425,2.4307,2.431,2.4269,2.4266,2.4273,2.4318,2.4336,2.4342,2.4432,2.4353,2.4357,2.4361,2.4363,2.4593,2.4596,0,0,0,0,0,0,2.4179,2.4189,2.4289,2.4292,2.4212,2.425,2.4256,2.4282,2.4309,2.431,2.4275,2.427,2.4329,2.4336,2.4344,2.4448,2.4358,2.4363,2.4366,2.459,2.4593,2.4597,0,0,0,0,0,0,2.4176,2.4189,2.4287,2.424,2.4251,2.4255,2.4285,2.4284,2.4302,2.4313,2.4314,2.4293,2.4327,2.4337,2.4405,2.445,2.4365,2.437,2.4586,2.4591,2.4595,2.4659,0,0,0,0,0,0,2.4173,2.4188,2.4221,2.4241,2.4254,2.4347,2.4288,2.4287,2.431,2.4305,2.433,2.4332,2.4326,2.4398,2.441,2.4455,2.4374,2.4582,2.4588,2.4594,2.4653,2.4665,2.4675,0,0,0,0,0,2.4168,2.4239,2.4223,2.4236,2.4296,2.4349,2.4357,2.4348,2.4314,2.4348,2.4354,2.4331,2.4443,2.4405,2.4419,2.4466,2.4579,2.4586,2.4593,2.4647,2.4662,2.4675,0,0,0,0,0,0,2.4227,2.4241,2.4224,2.4303,2.4325,2.4341,2.4384,2.4364,2.4398,2.4391,2.4379,2.4385,2.4457,2.4468,2.4426,2.4552,2.4506,2.4516,2.4542,2.4557,2.4568,2.4564,2.4378,0,0,0,0,0,2.4248,2.429,2.43,2.4369,2.438,2.438,2.4403,2.4394,2.4417,2.4427,2.4438,2.4463,2.4503,2.453,2.4568,2.4653,2.4658,2.4692,2.4704,2.4713,2.4722,2.4767,2.4782,2.462,2.462,2.462,0,0,2.4295,2.4307,2.4335,2.4381,2.4397,2.4441,2.4389,2.4438,2.447,2.4435,2.4499,2.4508,2.4535,2.4611,2.4645,2.4623,2.4768,2.4722,2.4729,2.4734,2.4776,2.4791,2.4805,2.4624,2.4624,2.4623,0,0,2.4401,2.4415,2.4473,2.4489,2.4513,2.4511,2.4525,2.4544,2.4548,2.4612,2.4586,2.4624,2.4695,2.4714,2.4733,2.4843,2.4823,2.4856,2.4917,2.496,2.4973,2.4984,2.5023,2.5037,2.4865,2.4865,2.4865,0,2.4456,2.452,2.4505,2.4555,2.4576,2.4543,2.4602,2.4619,2.4655,2.467,2.4643,2.4729,2.4745,2.4824,2.4851,2.4868,2.4883,2.4854,2.4972,2.4983,2.4993,2.5031,2.5045,2.4869,2.4869,2.4868,2.4868,0,2.4586,2.463,2.4674,2.4707,2.4732,2.4787,2.4781,2.4809,2.4796,2.4798,2.4863,2.4879,2.4919,2.4937,2.4927,2.5016,2.5001,2.4973,2.4926,2.5013,2.5048,2.5062,2.4875,2.4873,2.4872,2.4871,0,0,2.4734,2.4755,2.4772,2.4785,2.4807,2.4842,2.4894,2.4931,2.4955,2.498,2.5024,2.5082,2.5056,2.5077,2.5068,2.5107,2.5192,2.5074,2.5075,2.5096,2.529,2.5311,2.5328,2.5178,2.518,2.5182,2.5288,0,2.4841,2.493,2.4917,2.5003,2.5043,2.5011,2.5056,2.5075,2.5077,2.5113,2.5116,2.5157,2.512,2.5132,2.5168,2.5174,2.5231,2.5166,2.5219,2.5221,2.5214,2.5346,2.5369,2.5468,2.5301,2.5304,2.5305,0,2.4979,2.5006,2.5095,2.5109,2.5125,2.5166,2.5198,2.5231,2.5252,2.5251,2.5273,2.5256,2.5309,2.526,2.5332,2.5288,2.5309,2.5315,2.5318,2.5324,2.5269,2.5355,2.5499,2.5514,2.5327,2.5325,2.5323,0,2.5077,2.5136,2.5197,2.521,2.5227,2.5256,2.5265,2.5282,2.5305,2.5333,2.5347,2.5381,2.5401,2.5428,2.5421,2.5386,2.5495,2.5446,2.5496,2.5496,2.5522,2.5521,2.5671,2.5534,2.5534,2.5534,2.5533,0,2.5199,2.5255,2.5241,2.5279,2.534,2.5324,2.5386,2.5391,2.5406,2.5444,2.5418,2.5455,2.5443,2.548,2.5475,2.5535,2.5544,2.5545,2.5543,2.5548,2.5548,2.5562,2.5555,2.5538,2.5537,2.5536,2.5535,0,2.5321,2.5314,2.5378,2.5387,2.5391,2.5436,2.5445,2.548,2.5479,2.5527,2.5538,2.5537,2.5578,2.5573,2.562,2.5616,2.5691,2.5681,2.5684,2.5681,2.5732,2.5728,2.5898,2.592,2.5768,2.577,2.5771,0,2.54,2.5442,2.5455,2.5477,2.5487,2.5525,2.5546,2.5531,2.5555,2.5579,2.5612,2.565,2.5679,2.5747,2.5751,2.5786,2.5777,2.5834,2.5782,2.5785,2.5778,2.5776,2.578,2.5845,2.5847,2.5848,2.5849,0,2.554,2.5533,2.5565,2.5594,2.5619,2.5643,2.5663,2.5683,2.567,2.5698,2.5738,2.5761,2.5807,2.5845,2.5877,2.5887,2.5867,2.5865,2.5878,2.5884,2.5884,2.5885,2.5712,2.5862,2.586,2.5859,2.5859,2.5858,2.5643,2.5678,2.5692,2.5727,2.574,2.5759,2.5791,2.5793,2.5825,2.586,2.5849,2.5894,2.5912,2.5953,2.5966,2.6002,2.5981,2.6001,2.6006,2.6012,2.6017,2.5877,2.6008,2.6008,2.6007,2.6007,2.6007,0,2.5782,2.5788,2.582,2.5848,2.5876,2.585,2.587,2.5896,2.5935,2.5952,2.598,2.6026,2.6062,2.6067,2.6102,2.6129,2.6121,2.6139,2.6137,2.614,2.6034,2.6019,2.6145,2.6145,2.6145,2.6145,2.6145,2.6145,2.5858,2.5915,2.591,2.5972,2.5978,2.6021,2.6035,2.6052,2.6065,2.6116,2.6145,2.6147,2.6159,2.6194,2.6226,2.6226,2.6241,2.6263,2.626,2.6161,2.6148,2.6134,2.612,2.6266,2.6266,2.6363,2.6364,2.6365]},{"header":{"parameterUnit":"m.s-1","parameterCategory":1,"la1":30.2991,"la2":30.254,"lo1":-89.0895,"lo2":-89.0444,"dy":0.0017,"dx":0.0017,"nx":28,"ny":28,"refTime":"2023-09-15T09:00:00:Z","depth":0,"parameterNumber":3,"parameterNumberName":"V-component_of_WINDS"},"data":[0,0,0,0,0,0,0,0,0,0,0,0,0,0,0,0,0,0,0,0,0,0,0,0,0,0,0,0,0,0,0,0,0,0,0,0,0,0,0,0,0,0,0,0,0,0,0,0,0,0,0,0,0,0,0,0,0,0,-0.116,-0.1159,0,-0.1091,-0.1091,-0.109,-0.1072,-0.1072,-0.1073,-0.1073,-0.0999,-0.0997,-0.0995,0,0,0,0,0,0,0,0,0,0,0,0,0,-0.1273,-0.1271,-0.116,-0.1159,-0.1158,-0.1091,-0.109,-0.109,-0.1072,-0.1072,-0.1073,-0.1073,-0.1,-0.0997,-0.0994,0,0,0,0,0,0,0,0,0,0,0,0,0,-0.1216,-0.1271,-0.116,-0.1141,-0.1139,-0.1092,-0.109,-0.1089,-0.1072,-0.1072,-0.1073,-0.1074,-0.1001,-0.0998,-0.0994,-0.0959,0,0,-0.0983,-0.0982,0,0,0,0,0,0,0,0,-0.122,-0.1212,-0.1145,-0.1143,-0.114,-0.1091,-0.1103,-0.1045,-0.1072,-0.1097,-0.1073,-0.1074,-0.1029,-0.1023,-0.1009,-0.0956,-0.0952,-0.0983,-0.0981,-0.0979,-0.0978,0,0,0,0,0,0,0,-0.1224,-0.1215,-0.1133,-0.1144,-0.1141,-0.1136,-0.1128,-0.1092,-0.106,-0.1095,-0.1094,-0.1086,-0.1028,-0.1012,-0.1007,-0.0951,-0.0983,-0.098,-0.0978,-0.0976,-0.0867,-0.0866,0,0,0,0,0,0,-0.1231,-0.1218,-0.1135,-0.1131,-0.1182,-0.1133,-0.1125,-0.1106,-0.1061,-0.1054,-0.1085,-0.1085,-0.1018,-0.1011,-0.1004,-0.0961,-0.0979,-0.0976,-0.0974,-0.0868,-0.0867,-0.0866,0,0,0,0,0,0,-0.1234,-0.1224,-0.1138,-0.1174,-0.1163,-0.1131,-0.1109,-0.1104,-0.1089,-0.1053,-0.1047,-0.1076,-0.1018,-0.1009,-0.0971,-0.0958,-0.0974,-0.0971,-0.0869,-0.0868,-0.0867,-0.0873,0,0,0,0,0,0,-0.1237,-0.1225,-0.1212,-0.1174,-0.1161,-0.1106,-0.1109,-0.1102,-0.1083,-0.1082,-0.1043,-0.1037,-0.1018,-0.0976,-0.0967,-0.0953,-0.0968,-0.087,-0.0868,-0.0867,-0.0874,-0.0872,-0.0871,0,0,0,0,0,-0.1241,-0.1215,-0.1211,-0.1201,-0.1144,-0.1105,-0.1098,-0.1078,-0.1082,-0.1068,-0.1046,-0.1038,-0.0961,-0.0973,-0.0962,-0.0947,-0.087,-0.0869,-0.0867,-0.0874,-0.0873,-0.0871,0,0,0,0,0,0,-0.125,-0.121,-0.1205,-0.1166,-0.114,-0.1102,-0.1084,-0.1076,-0.1047,-0.1047,-0.1023,-0.1014,-0.0978,-0.0959,-0.0972,-0.0911,-0.0916,-0.0912,-0.0925,-0.0923,-0.0921,-0.0926,-0.0965,0,0,0,0,0,-0.1248,-0.1221,-0.1187,-0.1156,-0.1143,-0.1116,-0.1099,-0.1086,-0.1057,-0.1045,-0.102,-0.0991,-0.0961,-0.0941,-0.0911,-0.0872,-0.0863,-0.0856,-0.0855,-0.0854,-0.085,-0.0828,-0.0825,-0.0861,-0.0861,-0.0861,0,0,-0.1242,-0.1217,-0.1201,-0.1157,-0.1135,-0.1107,-0.1107,-0.1077,-0.1055,-0.104,-0.1003,-0.0984,-0.095,-0.0911,-0.0893,-0.0894,-0.0839,-0.0852,-0.0851,-0.0848,-0.0826,-0.0823,-0.082,-0.0859,-0.086,-0.086,0,0,-0.1218,-0.1196,-0.1168,-0.1147,-0.1114,-0.1097,-0.1091,-0.1055,-0.1042,-0.1005,-0.0993,-0.0967,-0.0915,-0.0892,-0.0873,-0.0843,-0.0834,-0.0834,-0.0826,-0.0805,-0.0802,-0.0799,-0.0788,-0.0784,-0.0831,-0.0831,-0.0831,0,-0.1215,-0.1173,-0.1155,-0.1126,-0.1107,-0.1094,-0.1066,-0.1045,-0.1004,-0.0991,-0.0994,-0.0929,-0.0905,-0.0861,-0.0854,-0.084,-0.0831,-0.0837,-0.0804,-0.0801,-0.0799,-0.0788,-0.0783,-0.0831,-0.0831,-0.0831,-0.0831,0,-0.117,-0.1142,-0.1123,-0.1085,-0.1064,-0.1036,-0.1013,-0.0994,-0.0984,-0.0967,-0.0929,-0.0901,-0.0865,-0.0854,-0.0843,-0.0809,-0.0811,-0.0809,-0.0813,-0.0796,-0.0785,-0.0781,-0.0831,-0.0831,-0.0831,-0.0831,0,0,-0.1147,-0.1102,-0.1095,-0.1078,-0.1043,-0.102,-0.0991,-0.0958,-0.0942,-0.0914,-0.0889,-0.0847,-0.0846,-0.0825,-0.0811,-0.0793,-0.0771,-0.0794,-0.0793,-0.079,-0.0731,-0.0732,-0.0728,-0.0766,-0.0765,-0.0765,-0.0734,0,-0.1118,-0.1067,-0.1051,-0.1008,-0.0981,-0.097,-0.0945,-0.092,-0.0903,-0.0877,-0.0859,-0.0829,-0.083,-0.0817,-0.0799,-0.0778,-0.0759,-0.078,-0.0741,-0.074,-0.0749,-0.0722,-0.0722,-0.0694,-0.073,-0.0729,-0.0729,0,-0.1076,-0.1049,-0.1004,-0.0973,-0.0961,-0.0939,-0.0908,-0.0884,-0.0856,-0.0845,-0.0823,-0.0812,-0.0781,-0.0788,-0.0745,-0.076,-0.0744,-0.0731,-0.073,-0.0724,-0.0732,-0.0715,-0.0685,-0.0681,-0.0722,-0.0722,-0.0723,0,-0.1063,-0.1016,-0.0983,-0.0969,-0.0932,-0.0917,-0.0901,-0.0873,-0.0855,-0.0828,-0.0816,-0.0785,-0.0768,-0.0744,-0.0725,-0.0732,-0.0683,-0.0689,-0.0673,-0.0673,-0.0661,-0.0662,-0.0628,-0.0653,-0.0653,-0.0653,-0.0653,0,-0.1031,-0.1003,-0.0977,-0.0957,-0.0926,-0.0908,-0.0878,-0.0861,-0.0837,-0.0813,-0.0802,-0.0779,-0.0756,-0.073,-0.0715,-0.0681,-0.0674,-0.0664,-0.066,-0.0664,-0.0665,-0.0652,-0.0653,-0.0652,-0.0652,-0.0653,-0.0653,0,-0.101,-0.0992,-0.0955,-0.0924,-0.0916,-0.0894,-0.0867,-0.0847,-0.0831,-0.0801,-0.0792,-0.0767,-0.0736,-0.0715,-0.0675,-0.0665,-0.0629,-0.0626,-0.0639,-0.0637,-0.0622,-0.0623,-0.0576,-0.0569,-0.06,-0.06,-0.06,0,-0.099,-0.0969,-0.0937,-0.092,-0.0904,-0.0878,-0.086,-0.0842,-0.0823,-0.0791,-0.0774,-0.0744,-0.0718,-0.0669,-0.0646,-0.0616,-0.0611,-0.0598,-0.0607,-0.0612,-0.061,-0.0611,-0.0609,-0.0595,-0.0595,-0.0595,-0.0595,0,-0.0957,-0.0949,-0.0924,-0.0896,-0.0875,-0.0851,-0.0828,-0.0815,-0.0793,-0.0773,-0.0742,-0.0722,-0.0683,-0.0652,-0.062,-0.0603,-0.0595,-0.0593,-0.0587,-0.059,-0.0598,-0.0593,-0.0634,-0.0593,-0.0593,-0.0593,-0.0593,-0.0594,-0.0935,-0.0916,-0.0891,-0.0863,-0.0844,-0.0823,-0.0803,-0.0785,-0.076,-0.0727,-0.0718,-0.0686,-0.066,-0.0617,-0.0599,-0.0573,-0.0574,-0.0566,-0.0564,-0.0562,-0.0562,-0.0604,-0.0567,-0.0567,-0.0568,-0.0568,-0.0568,0,-0.09,-0.0884,-0.0859,-0.0827,-0.0806,-0.0803,-0.0777,-0.0759,-0.0731,-0.0708,-0.0684,-0.0649,-0.062,-0.0596,-0.0565,-0.0549,-0.0545,-0.0542,-0.0542,-0.0538,-0.0563,-0.057,-0.0546,-0.0546,-0.0546,-0.0546,-0.0546,-0.0546,-0.088,-0.0848,-0.0837,-0.0796,-0.078,-0.0749,-0.0735,-0.0715,-0.0697,-0.0659,-0.0635,-0.062,-0.0597,-0.0565,-0.0538,-0.0532,-0.0521,-0.0518,-0.0511,-0.0534,-0.0536,-0.0539,-0.0545,-0.0516,-0.0516,-0.0488,-0.0488,-0.0488]}]]